Location: Newark
(50.0306°N, 2.3272°E)
Time: 21:13:09
(UTC+00:00)

Vanguard 1 - All Passes

Search period start: 08 December 2019 00:00
Search period end: 18 December 2019 00:00
Orbit: 652 x 3831 km, 34.3° (Epoch: 07 December)

Date Brightness Start Highest point End Pass type
(mag) Time Alt. Az. Time Alt. Az. Time Alt. Az.
08 Dec - 02:24:07 10° S 02:39:41 23° SE 02:53:27 10° E visible
08 Dec - 04:42:33 10° SW 05:02:38 40° SSE 05:17:11 10° E visible
08 Dec - 07:06:42 10° WSW 07:25:39 44° S 07:37:22 10° ESE daylight
08 Dec - 09:33:26 10° W 09:46:36 29° SSW 09:55:00 10° SSE daylight
09 Dec - 02:42:45 10° SSW 03:00:17 28° SE 03:15:28 10° E visible
09 Dec - 05:02:55 10° SW 05:23:34 44° SSE 05:38:11 10° ESE visible
09 Dec - 07:27:50 10° WSW 07:46:27 43° SSW 07:57:56 10° SE daylight
09 Dec - 09:55:08 10° W 10:06:55 25° SW 10:14:47 10° SSE daylight
10 Dec - 00:50:02 10° SSE 00:58:58 14° SE 01:07:46 10° ESE visible
10 Dec - 03:02:01 10° SSW 03:20:57 34° SSE 03:37:04 10° E visible
10 Dec - 05:23:33 10° WSW 05:44:30 46° S 05:59:04 10° ESE visible
10 Dec - 07:49:06 10° W 08:07:09 41° SSW 08:18:23 10° SE daylight
10 Dec - 10:17:11 10° W 10:27:05 20° SW 10:34:08 10° S daylight
11 Dec - 01:06:06 10° S 01:19:14 19° SE 01:32:06 10° E visible
11 Dec - 03:21:44 10° SSW 03:41:43 38° SSE 03:58:24 10° E visible
11 Dec - 05:44:22 10° WSW 06:05:26 48° S 06:19:51 10° ESE visible
11 Dec - 08:10:28 10° W 08:27:46 38° SSW 08:38:40 10° SE daylight
11 Dec - 10:39:54 10° W 10:47:07 15° SW 10:52:46 10° SSW daylight
12 Dec - 01:23:57 10° S 01:39:35 24° SE 01:54:51 10° E visible
12 Dec - 03:41:50 10° SW 04:02:34 43° SSE 04:19:33 10° E visible
12 Dec - 06:05:21 10° WSW 06:26:20 48° S 06:40:33 10° ESE visible
12 Dec - 08:31:58 10° W 08:48:15 33° SSW 08:58:45 10° SSE daylight
12 Dec - 11:05:09 10° WSW 11:07:02 10° WSW 11:08:47 10° SW daylight
13 Dec - 01:42:43 10° SSW 02:00:02 30° SE 02:16:54 10° E visible
13 Dec - 04:02:12 10° SW 04:23:28 46° SSE 04:40:35 10° ESE visible
13 Dec - 06:26:28 10° WSW 06:47:12 47° SSW 07:01:09 10° SE visible
13 Dec - 08:53:38 10° W 09:08:35 29° SW 09:18:35 10° SSE daylight
13 Dec - 23:50:27 10° SSE 23:59:07 14° SE 00:08:07 10° ESE visible
14 Dec - 02:02:04 10° SSW 02:20:35 35° SSE 02:38:32 10° E visible
14 Dec - 04:22:48 10° WSW 04:44:25 49° S 05:01:32 10° ESE visible
14 Dec - 06:47:42 10° W 07:07:58 44° SSW 07:21:37 10° SE visible
14 Dec - 09:15:37 10° W 09:28:46 24° SW 09:38:02 10° S daylight
15 Dec - 00:06:45 10° SSE 00:19:11 19° SE 00:32:29 10° E visible
15 Dec - 02:21:50 10° SSW 02:41:16 40° SSE 02:59:56 10° E visible
15 Dec - 04:43:35 10° WSW 05:05:22 50° S 05:22:22 10° ESE visible
15 Dec - 07:09:02 10° W 07:28:38 41° SSW 07:41:55 10° SE visible
15 Dec - 09:38:04 10° W 09:48:49 19° SW 09:56:54 10° SSW daylight
16 Dec - 00:24:44 10° S 00:39:22 24° SE 00:55:17 10° E visible
16 Dec - 02:41:55 10° SW 03:02:02 44° SSE 03:21:09 10° E visible
16 Dec - 05:04:32 10° WSW 05:26:20 50° S 05:43:07 10° ESE visible
16 Dec - 07:30:29 10° W 07:49:10 37° SSW 08:02:02 10° SSE daylight
16 Dec - 10:01:37 10° W 10:08:44 14° SW 10:14:37 10° SSW daylight
17 Dec - 00:43:36 10° SSW 00:59:41 30° SE 01:17:24 10° E visible
17 Dec - 03:02:17 10° SW 03:22:54 47° SSE 03:42:15 10° E visible
17 Dec - 05:25:35 10° WSW 05:47:14 49° S 06:03:45 10° ESE visible
17 Dec - 07:52:07 10° W 08:09:34 32° SW 08:21:52 10° SSE daylight
17 Dec - 22:52:12 10° SE 22:59:22 13° ESE 23:07:09 10° ESE visible
